When you browse on this site, cookies collect data to enhance your experience and personalize the content and advertising you see.
Visit our Privacy Policy to learn more. By continuing to use the site, you agree to this use of cookies and data.
  • In Slovakia
  • List of Countries
  • For 7 days
  • Water Temperature
  • Satellite Maps
  • Weather Map
  • Weather Widgets
  • user-avatar
    Login

    Hourly Weather Andora

    Today, 20 July, Saturday

    Time Temperature Precipitation Wind Pressure Humidity
    00:00 +14°C° 0 mm 1 mps 625 mmHg 81%
    01:00 +14°C° 0 mm 1 mps 625 mmHg 80%
    02:00 +15°C° 0 mm 1 mps 625 mmHg 78%
    03:00 +15°C° 0 mm 1 mps 625 mmHg 77%
    04:00 +15°C° 0.1 mm 1 mps 626 mmHg 76%
    05:00 +16°C° 0.1 mm 1 mps 626 mmHg 76%
    06:00 +18°C° 0.1 mm 1 mps 626 mmHg 75%
    07:00 +20°C° 0 mm 1 mps 628 mmHg 66%
    08:00 +22°C° 0 mm 1 mps 629 mmHg 57%
    09:00 +24°C° 0 mm 2 mps 630 mmHg 47%
    10:00 +25°C° 0 mm 2 mps 630 mmHg 44%
    11:00 +26°C° 0 mm 2 mps 630 mmHg 40%
    12:00 +27°C° 0 mm 3 mps 631 mmHg 37%
    13:00 +27°C° 0 mm 3 mps 631 mmHg 37%
    14:00 +27°C° 0 mm 3 mps 630 mmHg 37%
    15:00 +27°C° 0 mm 3 mps 630 mmHg 37%
    16:00 +26°C° 0.1 mm 2 mps 630 mmHg 44%
    17:00 +25°C° 0.1 mm 2 mps 629 mmHg 52%
    18:00 +23°C° 0.1 mm 2 mps 629 mmHg 59%
    19:00 +21°C° 0.1 mm 1 mps 629 mmHg 67%
    20:00 +19°C° 0.1 mm 1 mps 628 mmHg 75%
    21:00 +15°C° 0.1 mm 0 mps 628 mmHg 82%
    22:00 +16°C° 0 mm 1 mps 628 mmHg 81%
    23:00 +15°C° 0 mm 1 mps 628 mmHg 80%

    Tomorrow, 21 July, Sunday

    Time Temperature Precipitation Wind Pressure Humidity
    00:00 +15°C° 0 mm 1 mps 629 mmHg 79%
    01:00 +15°C° 0 mm 1 mps 629 mmHg 79%
    02:00 +15°C° 0 mm 1 mps 628 mmHg 79%
    03:00 +14°C° 0 mm 1 mps 628 mmHg 78%
    04:00 +15°C° 0 mm 1 mps 629 mmHg 75%
    05:00 +16°C° 0 mm 1 mps 629 mmHg 71%
    06:00 +18°C° 0 mm 1 mps 629 mmHg 68%
    07:00 +20°C° 0 mm 1 mps 631 mmHg 59%
    08:00 +23°C° 0 mm 2 mps 632 mmHg 50%
    09:00 +25°C° 0 mm 2 mps 633 mmHg 41%
    10:00 +26°C° 0 mm 2 mps 633 mmHg 39%
    11:00 +27°C° 0 mm 2 mps 633 mmHg 37%
    12:00 +28°C° 0 mm 2 mps 634 mmHg 35%
    13:00 +28°C° 0 mm 2 mps 633 mmHg 35%
    14:00 +28°C° 0 mm 3 mps 633 mmHg 35%
    15:00 +28°C° 0 mm 3 mps 633 mmHg 36%
    16:00 +27°C° 0.2 mm 2 mps 633 mmHg 43%
    17:00 +26°C° 0.2 mm 2 mps 632 mmHg 51%
    18:00 +24°C° 0.2 mm 1 mps 632 mmHg 58%
    19:00 +22°C° 0 mm 1 mps 631 mmHg 63%
    20:00 +20°C° 0 mm 1 mps 631 mmHg 68%
    21:00 +16°C° 0 mm 0 mps 630 mmHg 74%
    22:00 +18°C° 0 mm 1 mps 630 mmHg 73%
    23:00 +18°C° 0 mm 1 mps 630 mmHg 73%

    Day after tomorrow, 22 July, Monday

    Time Temperature Precipitation Wind Pressure Humidity
    00:00 +16°C° 0 mm 1 mps 630 mmHg 72%
    01:00 +16°C° 0 mm 1 mps 630 mmHg 72%
    02:00 +16°C° 0 mm 1 mps 630 mmHg 71%
    03:00 +16°C° 0 mm 1 mps 630 mmHg 71%
    04:00 +18°C° 0 mm 1 mps 630 mmHg 69%
    05:00 +19°C° 0 mm 1 mps 630 mmHg 66%
    06:00 +19°C° 0 mm 1 mps 631 mmHg 64%
    07:00 +22°C° 0 mm 1 mps 632 mmHg 55%
    08:00 +25°C° 0 mm 1 mps 633 mmHg 45%
    09:00 +27°C° 0 mm 1 mps 634 mmHg 35%
    10:00 +28°C° 0 mm 1 mps 634 mmHg 33%
    11:00 +29°C° 0 mm 2 mps 634 mmHg 31%
    12:00 +29°C° 0 mm 2 mps 634 mmHg 29%
    13:00 +29°C° 0.2 mm 2 mps 633 mmHg 33%
    14:00 +28°C° 0.2 mm 2 mps 633 mmHg 38%
    15:00 +27°C° 0.2 mm 2 mps 632 mmHg 42%
    16:00 +26°C° 0.1 mm 2 mps 632 mmHg 47%
    17:00 +25°C° 0.1 mm 1 mps 631 mmHg 53%
    18:00 +23°C° 0.1 mm 1 mps 631 mmHg 58%
    19:00 +22°C° 0 mm 1 mps 630 mmHg 61%
    20:00 +20°C° 0 mm 1 mps 630 mmHg 63%
    21:00 +19°C° 0 mm 1 mps 630 mmHg 66%
    22:00 +19°C° 0 mm 1 mps 629 mmHg 64%
    23:00 +18°C° 0 mm 1 mps 629 mmHg 62%

    23 July, Tuesday

    Time Temperature Precipitation Wind Pressure Humidity
    00:00 +18°C° 0 mm 1 mps 629 mmHg 60%
    01:00 +18°C° 0 mm 1 mps 629 mmHg 57%
    02:00 +18°C° 0 mm 1 mps 629 mmHg 54%
    03:00 +18°C° 0 mm 1 mps 628 mmHg 52%
    04:00 +19°C° 0 mm 1 mps 629 mmHg 52%
    05:00 +19°C° 0 mm 1 mps 629 mmHg 52%
    06:00 +20°C° 0 mm 1 mps 629 mmHg 52%
    07:00 +23°C° 0 mm 1 mps 630 mmHg 45%
    08:00 +25°C° 0 mm 1 mps 631 mmHg 38%
    09:00 +28°C° 0 mm 1 mps 632 mmHg 31%
    10:00 +28°C° 0 mm 1 mps 632 mmHg 30%
    11:00 +29°C° 0 mm 1 mps 632 mmHg 29%
    12:00 +29°C° 0 mm 2 mps 632 mmHg 28%
    13:00 +29°C° 0 mm 2 mps 631 mmHg 31%
    14:00 +28°C° 0 mm 1 mps 631 mmHg 35%
    15:00 +27°C° 0 mm 1 mps 630 mmHg 38%
    16:00 +26°C° 0.1 mm 1 mps 630 mmHg 44%
    17:00 +24°C° 0.1 mm 1 mps 629 mmHg 50%
    18:00 +23°C° 0.1 mm 1 mps 628 mmHg 57%
    19:00 +22°C° 0 mm 1 mps 628 mmHg 59%
    20:00 +20°C° 0 mm 1 mps 628 mmHg 62%
    21:00 +19°C° 0 mm 1 mps 628 mmHg 64%
    22:00 +19°C° 0 mm 1 mps 628 mmHg 63%
    23:00 +18°C° 0 mm 1 mps 628 mmHg 62%

    24 July, Wednesday

    Time Temperature Precipitation Wind Pressure Humidity
    00:00 +18°C° 0 mm 1 mps 628 mmHg 61%
    01:00 +18°C° 0 mm 1 mps 628 mmHg 59%
    02:00 +18°C° 0 mm 1 mps 627 mmHg 57%
    03:00 +18°C° 0 mm 1 mps 627 mmHg 54%
    04:00 +18°C° 0 mm 1 mps 627 mmHg 56%
    05:00 +19°C° 0 mm 1 mps 628 mmHg 57%
    06:00 +20°C° 0 mm 1 mps 628 mmHg 58%
    07:00 +22°C° 0 mm 1 mps 629 mmHg 50%
    08:00 +25°C° 0 mm 1 mps 630 mmHg 43%
    09:00 +27°C° 0 mm 1 mps 631 mmHg 36%
    10:00 +28°C° 0 mm 1 mps 631 mmHg 35%
    11:00 +28°C° 0 mm 2 mps 631 mmHg 33%
    12:00 +29°C° 0 mm 2 mps 631 mmHg 32%
    13:00 +27°C° 0 mm 2 mps 630 mmHg 38%
    14:00 +26°C° 0 mm 1 mps 629 mmHg 44%
    15:00 +25°C° 0 mm 1 mps 628 mmHg 50%
    16:00 +24°C° 0 mm 1 mps 628 mmHg 52%
    17:00 +24°C° 0 mm 1 mps 628 mmHg 55%
    18:00 +23°C° 0 mm 1 mps 628 mmHg 58%
    19:00 +21°C° 0 mm 1 mps 627 mmHg 62%
    20:00 +20°C° 0 mm 1 mps 627 mmHg 65%
    21:00 +18°C° 0 mm 1 mps 627 mmHg 69%
    22:00 +18°C° 0 mm 1 mps 626 mmHg 69%
    23:00 +18°C° 0 mm 1 mps 626 mmHg 69%

    25 July, Thursday

    Time Temperature Precipitation Wind Pressure Humidity
    00:00 +16°C° 0 mm 1 mps 626 mmHg 68%
    01:00 +16°C° 0 mm 1 mps 626 mmHg 68%
    02:00 +16°C° 0 mm 1 mps 626 mmHg 67%
    03:00 +16°C° 0 mm 1 mps 626 mmHg 67%
    04:00 +16°C° 0 mm 1 mps 626 mmHg 67%
    05:00 +18°C° 0 mm 1 mps 626 mmHg 66%
    06:00 +19°C° 0 mm 1 mps 627 mmHg 66%
    07:00 +21°C° 0 mm 1 mps 628 mmHg 58%
    08:00 +24°C° 0 mm 1 mps 629 mmHg 50%
    09:00 +26°C° 0 mm 1 mps 630 mmHg 42%
    10:00 +27°C° 0 mm 1 mps 630 mmHg 39%
    11:00 +28°C° 0 mm 2 mps 630 mmHg 37%
    12:00 +29°C° 0 mm 2 mps 630 mmHg 34%
    13:00 +28°C° 0 mm 2 mps 630 mmHg 37%
    14:00 +28°C° 0 mm 2 mps 629 mmHg 40%
    15:00 +27°C° 0 mm 1 mps 629 mmHg 43%
    16:00 +26°C° 0 mm 1 mps 628 mmHg 48%
    17:00 +25°C° 0 mm 1 mps 628 mmHg 53%
    18:00 +24°C° 0 mm 1 mps 628 mmHg 57%
    19:00 +22°C° 0 mm 1 mps 627 mmHg 61%
    20:00 +20°C° 0 mm 1 mps 627 mmHg 66%
    21:00 +18°C° 0 mm 1 mps 627 mmHg 70%
    22:00 +18°C° 0 mm 1 mps 627 mmHg 70%
    23:00 +18°C° 0 mm 1 mps 627 mmHg 70%
    Show more